Weather History for Louisville Bowman, KY

Change the Weather History Date:

Wednesday, April 16, 2014

  Actual Average Record
Temperature  
Mean Temperature 44 °F 57 °F  
Max Temperature 56 °F 67 °F 86 °F (1960)
Min Temperature 32 °F 47 °F 30 °F (1962)
Degree Days  
Heating Degree Days 21 9  
Month to date heating degree days 126 177  
Since 1 July heating degree days 4612 4100  
Cooling Degree Days 0 1  
Month to date cooling degree days 21 16  
Year to date cooling degree days 21 20  
Moisture  
Dew Point 20 °F    
Average Humidity 44    
Maximum Humidity 61    
Minimum Humidity 26    
Precipitation  
Precipitation 0.00 in 0.12 in 1.20 in (1972)
Month to date precipitation 4.74 1.90  
Year to date precipitation 12.69 12.62  
Sea Level Pressure  
Sea Level Pressure 30.32 in    
Wind  
Wind Speed 6 mph (East)    
Max Wind Speed 15 mph    
Max Gust Speed 20 mph    
Visibility 10 miles    
Events      
T = Trace of Precipitation, MM = Missing Value Source: NWS Daily Summary

Daily Weather History Graph

Daily Weather History Graph

Search for Another Location

Airport:

Trip Planner

Search our weather history database for the weather conditions in past years. The results will help you decide how hot, cold, wet, or windy it might be!

Date:

Astronomy

Apr. 16, 2014 Rise Set
Actual Time 7:05 AM EDT 8:19 PM EDT
Civil Twilight 6:38 AM EDT 8:47 PM EDT
Nautical Twilight 6:05 AM EDT 9:20 PM EDT
Astronomical Twilight 5:31 AM EDT 9:54 PM EDT
Moon 10:01 PM EDT (4/16) 7:53 AM EDT (4/16)
Length of Visible Light 14h 09m
Length of Day
13h 14m
Full, 98% of the Moon is Illuminated
Apr 16
Full
Apr 22
Last Quarter
Apr 29
New
May 6
First Quarter
May 14
Full

Hourly Weather History & Observations

Time (EDT) Temp. Windchill Dew Point Humidity Pressure Visibility Wind Dir Wind Speed Gust Speed Precip Events Conditions
12:53 AM 36.0 °F - 21.0 °F 55% 30.28 in 10.0 mi Calm Calm - N/A   Clear
1:53 AM 35.1 °F - 21.0 °F 57% 30.30 in 10.0 mi Calm Calm - N/A   Clear
2:53 AM 35.1 °F - 19.0 °F 52% 30.31 in 10.0 mi Calm Calm - N/A   Clear
3:53 AM 33.1 °F - 21.0 °F 61% 30.34 in 10.0 mi Calm Calm - N/A   Clear
4:53 AM 33.1 °F - 21.0 °F 61% 30.36 in 10.0 mi Calm Calm - N/A   Clear
5:53 AM 33.1 °F - 19.9 °F 59% 30.38 in 10.0 mi Calm Calm - N/A   Clear
6:53 AM 33.1 °F 30.0 °F 19.0 °F 56% 30.38 in 10.0 mi East 3.5 mph - N/A   Clear
7:53 AM 34.0 °F 28.0 °F 19.0 °F 54% 30.40 in 10.0 mi East 6.9 mph - N/A   Clear
8:53 AM 37.0 °F 29.8 °F 18.0 °F 46% 30.41 in 10.0 mi East 10.4 mph - N/A   Clear
9:53 AM 39.9 °F 32.9 °F 17.1 °F 40% 30.40 in 10.0 mi East 11.5 mph 19.6 mph N/A   Clear
10:53 AM 42.1 °F 36.6 °F 16.0 °F 35% 30.41 in 10.0 mi East 9.2 mph - N/A   Clear
11:53 AM 46.0 °F 40.6 °F 17.1 °F 31% 30.41 in 10.0 mi East 11.5 mph - N/A   Clear
12:53 PM 46.9 °F - 18.0 °F 32% 30.39 in 10.0 mi ENE 9.2 mph - N/A   Clear
1:53 PM 48.2 °F - 17.6 °F 30% 30.36 in 10.0 mi ESE 9.2 mph - N/A   Clear
2:53 PM 52.0 °F - 17.1 °F 25% 30.34 in 10.0 mi ESE 12.7 mph - N/A   Clear
3:53 PM 54.0 °F - 19.0 °F 25% 30.31 in 10.0 mi East 8.1 mph - N/A   Clear
4:53 PM 55.0 °F - 21.0 °F 27% 30.27 in 10.0 mi East 10.4 mph 17.3 mph N/A   Clear
5:53 PM 55.9 °F - 21.9 °F 27% 30.25 in 10.0 mi SSE 8.1 mph - N/A   Clear
6:53 PM 55.0 °F - 21.9 °F 28% 30.24 in 10.0 mi ESE 8.1 mph - N/A   Clear
7:53 PM 55.0 °F - 21.0 °F 27% 30.23 in 10.0 mi ESE 8.1 mph - N/A   Clear
8:53 PM 53.1 °F - 24.1 °F 32% 30.23 in 10.0 mi East 5.8 mph - N/A   Clear
9:53 PM 51.1 °F - 24.1 °F 35% 30.24 in 10.0 mi East 4.6 mph - N/A   Clear
10:53 PM 50.0 °F - 24.1 °F 36% 30.25 in 10.0 mi East 4.6 mph - N/A   Clear
11:53 PM 48.9 °F - 24.1 °F 38% 30.25 in 10.0 mi Calm Calm - N/A   Clear